Weather reports worldwide

Advertisment
Lulea/Kallax, Sweden (2186): temperature & dewpoint: 19.01.2017 02:00:00 - 25.01.2017 02:00:00 (CET)Lulea/Kallax, Sweden (2186): wind speed & gusts: 19.01.2017 02:00:00 - 25.01.2017 02:00:00 (CET)Lulea/Kallax, Sweden (2186): wind direction: 19.01.2017 02:00:00 - 25.01.2017 02:00:00 (CET)Lulea/Kallax, Sweden (2186): reduced air pressure: 19.01.2017 02:00:00 - 25.01.2017 02:00:00 (CET)Lulea/Kallax, Sweden (2186): visibility: 19.01.2017 02:00:00 - 25.01.2017 02:00:00 (CET)Lulea/Kallax, Sweden (2186): precipitation: 19.01.2017 02:00:00 - 25.01.2017 02:00:00 (CET)
Date & Time tt [°C] td [°C] ff [km/h] ff [kn] fx [km/h] fx [kn] dd ppp [hPa] vv [km] rr [mm]
25.01.2017 02:00:00 -3,4 -4,5 21 11 32 18 S 1019,4 10 0,0
25.01.2017 01:00:00 -4,4 -5,2 18 10 25 14 S 1020,3 40 0,0
25.01.2017 00:00:00 -5,2 -5,8 8 4 14 8 SSW 1021,3 10 0,0
24.01.2017 23:00:00 -7,9 -8,7 5 3 7 4 SW 1022,4 10 0,0
24.01.2017 22:00:00 -10,3 -11,3 5 3 7 4 SE 1022,8 10 0,0
24.01.2017 21:00:00 -11,9 -13,1 2 1 4 2 - 1023,1 10 0,0
24.01.2017 20:00:00 -12,9 -14,2 2 1 7 4 - 1023,5 10 0,0
24.01.2017 19:00:00 -15,5 -17,0 0 0 7 4 N 1023,8 2,0 0,0
24.01.2017 18:00:00 -16,6 -18,3 0 0 7 4 N 1023,7 10 0,0
24.01.2017 17:00:00 -15,7 -17,3 4 2 7 4 - 1023,9 10 0,0
24.01.2017 16:00:00 -15,6 -17,2 2 1 7 4 - 1023,9 10 0,0
24.01.2017 15:00:00 -13,9 -15,4 5 3 7 4 NW 1023,8 10 0,0
24.01.2017 14:00:00 -14,3 -15,8 0 0 7 4 N 1023,9 10 0,0
24.01.2017 13:00:00 -14,2 -15,7 4 2 11 6 NNW 1023,8 10 0,0
24.01.2017 12:00:00 -12,8 -14,1 5 3 7 4 NW 1023,3 10 0,0
24.01.2017 11:00:00 -14,2 -15,7 5 3 7 4 N 1023,0 10 0,0
24.01.2017 10:00:00 -14,7 -16,2 2 1 11 6 - 1022,5 10 0,0
24.01.2017 09:00:00 -14,9 -16,4 5 3 11 6 NNW 1021,9 10 0,0
24.01.2017 08:00:00 -12,5 -13,7 5 3 7 4 NNW 1021,1 10 0,0
24.01.2017 07:00:00 -13,4 -14,8 8 4 11 6 NNW 1020,5 10 0,0
24.01.2017 06:00:00 -12,7 -14,0 5 3 14 8 NNW 1019,3 10 0,0
24.01.2017 05:00:00 -12,9 -14,2 9 5 14 8 N 1018,3 10 0,0
24.01.2017 04:00:00 -12,7 -13,9 11 6 14 8 N 1017,5 45 0,0
24.01.2017 03:00:00 -11,3 -12,3 11 6 14 8 N 1017,1 45 0,0
24.01.2017 02:00:00 -11,1 -12,2 11 6 14 8 NW 1016,1 10 0,0
24.01.2017 01:00:00 -12,1 -13,3 11 6 14 8 NNW 1015,0 10 0,0
24.01.2017 00:00:00 -10,6 -11,6 11 6 14 8 NNW 1014,4 10 0,0
23.01.2017 23:00:00 -8,8 -9,7 9 5 14 8 NNW 1013,2 10 0,0
23.01.2017 22:00:00 -9,4 -10,3 11 6 14 8 NNW 1012,1 10 0,0
23.01.2017 21:00:00 -7,6 -8,5 11 6 18 10 NNW 1010,8 10 0,0
23.01.2017 20:00:00 -6,2 -7,1 11 6 18 10 NNW 1009,5 10 0,0
23.01.2017 19:00:00 -6,1 -6,9 9 5 18 10 NNW 1008,3 8 0,0
23.01.2017 18:00:00 -5,9 -6,8 13 7 18 10 NNW 1007,5 10 0,0
23.01.2017 17:00:00 -6,0 -6,9 9 5 18 10 NNW 1006,3 10 0,0
23.01.2017 16:00:00 -6,3 -7,3 13 7 22 12 NNW 1005,1 10 0,0
23.01.2017 15:00:00 -6,3 -7,2 9 5 22 12 N 1004,0 10 0,0
23.01.2017 14:00:00 -6,1 -6,9 9 5 18 10 N 1003,2 10 0,0
23.01.2017 13:00:00 -5,9 -6,6 9 5 18 10 N 1002,5 10 0,0
23.01.2017 12:00:00 -6,0 -7,0 8 4 - - N - 4,0 -
23.01.2017 11:00:00 -5,6 -6,1 8 4 14 8 N 1001,3 2,0 0,5
23.01.2017 10:00:00 -5,7 -6,3 8 4 14 8 NNE 1000,6 3,0 0,2
23.01.2017 09:00:00 -5,5 -6,1 9 5 14 8 NE 1000,1 2,5 0,5
23.01.2017 08:00:00 -5,4 -5,9 8 4 14 8 NE 1000,1 2,0 0,7
23.01.2017 07:00:00 -5,1 -5,7 4 2 7 4 - 1000,2 2,5 0,4
23.01.2017 06:00:00 -5,4 -5,9 4 2 7 4 - 1000,9 8 0,0
23.01.2017 05:00:00 -6,2 -6,9 2 1 7 4 - 1001,1 10 0,0
23.01.2017 04:00:00 -5,7 -6,2 4 2 7 4 NNE 1001,5 10 0,0
23.01.2017 03:00:00 -5,8 -6,4 4 2 7 4 NNW 1001,9 7 0,0
23.01.2017 02:00:00 -5,8 -6,4 2 1 7 4 - 1002,3 9 0,0
23.01.2017 01:00:00 -6,0 -6,5 4 2 14 8 - 1002,6 8 0,0
23.01.2017 00:00:00 -5,0 -5,5 5 3 7 4 NW 1003,1 0,4 0,0
22.01.2017 23:00:00 -4,3 -4,7 4 2 4 2 - 1003,4 10 0,0
22.01.2017 22:00:00 -3,4 -3,7 2 1 7 4 - 1003,6 10 0,0
22.01.2017 21:00:00 -2,1 -2,4 5 3 11 6 SSE 1004,1 6 0,0
22.01.2017 20:00:00 -1,6 -1,9 9 5 14 8 S 1004,9 3,0 0,0
22.01.2017 19:00:00 -1,3 -1,6 8 4 14 8 S 1005,9 0,7 0,0
22.01.2017 18:00:00 -0,5 -0,8 9 5 22 12 SSE 1006,8 0,3 0,0
22.01.2017 17:00:00 -1,1 -1,4 13 7 22 12 SSE 1007,5 0,8 0,0
22.01.2017 16:00:00 -1,8 -2,0 13 7 18 10 SE 1008,9 2,1 0,0
22.01.2017 15:00:00 -3,1 -3,5 9 5 18 10 ESE 1009,6 3,6 0,0
22.01.2017 14:00:00 -4,0 -4,7 5 3 7 4 E 1010,5 4,9 0,0
22.01.2017 13:00:00 -4,1 -4,8 5 3 7 4 SE 1011,4 10 0,0
22.01.2017 12:00:00 -4,9 -5,6 2 1 7 4 - 1011,9 10 0,0
22.01.2017 11:00:00 -5,1 -5,8 0 0 4 2 N 1012,9 10 0,0
22.01.2017 10:00:00 -5,3 -6,0 2 1 4 2 - 1013,4 10 0,0
22.01.2017 09:00:00 -5,4 -6,1 0 0 4 2 N 1013,7 10 0,0
22.01.2017 08:00:00 -5,3 -5,9 2 1 4 2 - 1013,7 10 0,0
22.01.2017 07:00:00 -5,0 -5,8 5 3 11 6 WNW 1013,9 10 0,0
22.01.2017 06:00:00 -5,2 -5,8 4 2 4 2 WSW 1013,6 10 0,0
22.01.2017 05:00:00 -5,3 -5,9 0 0 7 4 N 1013,8 10 0,0
22.01.2017 04:00:00 -5,8 -6,6 7 4 7 4 NW 1013,8 29 0,0
22.01.2017 03:00:00 -5,7 -6,3 4 2 7 4 NW 1014,1 25 0,0
22.01.2017 02:00:00 -4,4 -5,1 4 2 7 4 NW 1014,0 35 0,0
22.01.2017 01:00:00 -7,2 -7,8 4 2 7 4 - 1014,4 10 0,0
22.01.2017 00:00:00 -6,9 -7,6 2 1 7 4 - 1014,7 10 0,0
21.01.2017 23:00:00 -5,5 -6,2 4 2 7 4 W 1015,0 16 0,0
21.01.2017 22:00:00 -5,8 -6,9 5 3 11 6 N 1015,0 10 0,0
21.01.2017 21:00:00 -6,7 -8,5 2 1 4 2 - 1015,4 10 0,0
21.01.2017 20:00:00 -7,4 -9,2 2 1 4 2 - 1015,7 10 0,0
21.01.2017 19:00:00 -8,1 -9,8 4 2 7 4 - 1016,4 10 0,0
21.01.2017 18:00:00 -9,7 -11,3 4 2 7 4 SSE 1017,2 10 0,0
21.01.2017 17:00:00 -10,6 -12,3 4 2 4 2 - 1017,7 10 0,0
21.01.2017 16:00:00 -10,9 -12,7 2 1 11 6 - 1018,4 10 0,0
21.01.2017 15:00:00 -6,2 -9,1 4 2 11 6 - 1018,7 10 0,0
21.01.2017 14:00:00 -7,8 -10,9 2 1 7 4 - 1019,4 10 0,0
21.01.2017 13:00:00 -8,8 -11,9 2 1 7 4 - 1019,6 10 0,0
21.01.2017 12:00:00 -5,4 -9,8 4 2 18 10 - 1019,5 10 0,0
21.01.2017 11:00:00 -6,1 -9,7 11 6 14 8 WNW 1019,6 10 0,0
21.01.2017 10:00:00 -8,2 -10,6 9 5 14 8 SSE 1019,0 10 0,0
21.01.2017 09:00:00 -5,7 -8,9 14 8 18 10 WNW 1018,0 45 0,0
21.01.2017 08:00:00 -5,7 -9,9 16 9 25 14 NW 1017,2 10 0,0
21.01.2017 07:00:00 -5,9 -9,5 9 5 25 14 NNW 1016,3 10 0,0
21.01.2017 06:00:00 -4,5 -8,8 22 12 32 18 NW 1015,3 45 0,0
21.01.2017 05:00:00 -3,9 -8,0 18 10 25 14 WNW 1013,4 10 0,0
21.01.2017 04:00:00 -4,7 -8,1 15 8 22 12 NW 1013,0 10 0,0
21.01.2017 03:00:00 -4,6 -8,3 16 9 25 14 W 1012,2 10 0,0
21.01.2017 02:00:00 -4,4 -8,3 16 9 22 12 W 1011,8 10 0,0
21.01.2017 01:00:00 -4,7 -8,2 13 7 22 12 W 1011,7 10 0,0
21.01.2017 00:00:00 -5,1 -8,4 11 6 18 10 W 1011,8 10 0,0
20.01.2017 23:00:00 -5,3 -8,6 13 7 18 10 W 1011,8 10 0,0
20.01.2017 22:00:00 -4,4 -8,1 11 6 18 10 W 1011,7 10 0,0
20.01.2017 21:00:00 -6,6 -8,1 2 1 7 4 - 1010,8 10 0,0
20.01.2017 20:00:00 -9,0 -10,9 4 2 7 4 - 1010,4 10 0,0
20.01.2017 19:00:00 -4,7 -8,3 4 2 11 6 - 1009,5 10 0,0
20.01.2017 18:00:00 -5,8 -8,2 5 3 11 6 SW 1009,0 10 0,0
20.01.2017 17:00:00 -4,9 -8,1 11 6 22 12 WSW 1008,5 10 0,0
20.01.2017 16:00:00 -4,8 -8,0 8 4 14 8 SW 1008,3 10 0,0
20.01.2017 15:00:00 -4,5 -8,0 9 5 22 12 WSW 1008,0 10 0,0
20.01.2017 14:00:00 -3,2 -7,4 16 9 29 16 WSW 1007,4 10 0,0
20.01.2017 13:00:00 -3,0 -7,4 13 7 25 14 WSW 1007,4 10 0,0
20.01.2017 12:00:00 -3,3 -7,5 16 9 32 18 WSW 1007,0 10 0,0
20.01.2017 11:00:00 -3,5 -7,6 13 7 22 12 WSW 1007,1 10 0,0
20.01.2017 10:00:00 -3,6 -7,8 13 7 22 12 SW 1007,3 10 0,0
20.01.2017 09:00:00 -4,0 -8,1 13 7 25 14 SSW 1007,2 10 0,0
20.01.2017 08:00:00 -4,2 -8,5 13 7 40 21 SW 1007,5 10 0,0
20.01.2017 07:00:00 -4,3 -8,6 18 10 29 16 SW 1007,7 10 0,0
20.01.2017 06:00:00 -4,4 -8,8 18 10 29 16 SW 1008,3 10 0,0
20.01.2017 05:00:00 -4,8 -9,2 15 8 25 14 SW 1008,8 10 0,0
20.01.2017 04:00:00 -5,0 -9,8 16 9 29 16 SW 1009,1 10 0,0
20.01.2017 03:00:00 -5,1 -10,2 9 5 22 12 SW 1009,3 10 0,0
20.01.2017 02:00:00 -4,7 -10,4 11 6 22 12 WSW 1009,9 10 0,0
20.01.2017 01:00:00 -4,2 -10,7 11 6 22 12 W 1010,1 10 0,0
20.01.2017 00:00:00 -3,3 -10,6 18 10 32 18 W 1010,2 10 0,0
19.01.2017 23:00:00 -3,1 -10,2 21 11 32 18 WNW 1009,7 10 0,0
19.01.2017 22:00:00 -2,8 -10,3 21 11 47 25 WNW 1009,4 10 0,0
19.01.2017 21:00:00 -2,6 -10,2 26 14 50 27 WNW 1008,2 10 0,0
19.01.2017 20:00:00 -2,2 -10,7 39 21 54 29 WNW 1007,3 10 0,0
19.01.2017 19:00:00 -1,6 -10,4 42 23 76 41 NW 1005,5 10 0,0
19.01.2017 18:00:00 -0,3 -10,1 52 28 79 43 WNW 1003,1 10 0,0
19.01.2017 17:00:00 0,8 -7,4 48 26 79 43 WNW 1000,6 10 0,0
19.01.2017 16:00:00 1,0 -6,2 31 17 61 33 W 999,5 10 0,0
19.01.2017 15:00:00 1,3 -4,4 37 20 61 33 W 998,6 10 0,0
19.01.2017 14:00:00 2,2 -4,2 41 22 65 35 WNW 997,4 10 0,0
19.01.2017 13:00:00 1,9 -0,5 24 13 43 23 W 996,3 10 0,0
19.01.2017 12:00:00 1,8 0,4 34 18 61 33 WNW 995,6 10 0,3
19.01.2017 11:00:00 5,0 -0,8 21 11 40 21 W 994,6 10 0,0
19.01.2017 10:00:00 2,0 -1,6 16 9 29 16 SW 995,6 10 0,0
19.01.2017 09:00:00 2,1 -1,6 22 12 32 18 SSW 997,1 82 0,0
19.01.2017 08:00:00 1,5 -1,7 18 10 32 18 S 999,2 82 0,0
19.01.2017 07:00:00 2,5 -2,0 18 10 32 18 SSW 1001,3 82 0,0
19.01.2017 06:00:00 2,9 -2,4 18 10 25 14 SW 1002,8 50 0,0
19.01.2017 05:00:00 3,2 -2,3 11 6 25 14 W 1003,6 10 0,0
19.01.2017 04:00:00 3,8 -2,3 14 8 36 19 WNW 1004,0 50 0,0
19.01.2017 03:00:00 4,8 -2,7 26 14 43 23 WNW 1003,7 10 0,0
19.01.2017 02:00:00 5,3 -1,9 36 19 61 33 NW 1002,4 50 0,0

tt = temperature
td = dewpoint
ff = wind speed
fx = gusts
dd = wind direction
ppp = reduced air pressure
vv = visibility
rr = precipitation

Next stations